Latest Weather Observations for Naracoorte

IDS60801

Issued at 5:35 am CDT Saturday 1 November 2014 (issued every 30 minutes, with the page automatically refreshed every 10 minutes)

About weather observations | Map of weather stations | Latest weather observations for SA | Other Formats
Station Details ID: 026099 Name: NARACOORTE AERODROME Lat: -36.98 Lon: 140.73 Height: 49.72 m
Data from the previous 72 hours. | See also: Recent months at Naracoorte
Date/Time
CDT
Temp
°C
App
Temp
°C
Dew
Point
Rel
Hum
%
Delta-T
°C
Wind Press
QNH
hPa
Press
MSL
hPa
Rain
since 9 am
mm
Dir
 
Spd
km/h
Gust
km/h
Spd
kts
Gust
kts
01/05:30am 10.0 6.0 8.1 88 0.9 WSW 19 24 10 13 1006.2 1006.2 -
01/05:00am 10.9 7.3 9.8 93 0.6 WSW 19 26 10 14 1005.6 1005.6 -
01/04:30am 11.0 6.1 9.8 92 0.6 WSW 26 33 14 18 1004.9 1004.9 -
01/04:00am 11.6 6.0 10.3 92 0.7 SW 30 39 16 21 1004.5 1004.5 -
01/03:30am 12.1 6.8 11.3 95 0.4 WSW 30 37 16 20 1003.9 1003.9 -
01/03:00am 12.6 8.7 12.0 96 0.3 W 24 35 13 19 1003.2 1003.2 -
01/02:30am 12.6 9.4 12.0 96 0.3 WNW 20 26 11 14 1002.9 1002.9 -
01/02:00am 12.7 8.7 11.8 94 0.5 W 24 30 13 16 1002.9 1002.9 -
01/01:30am 13.0 9.9 11.7 92 0.7 W 19 24 10 13 1003.0 1003.0 2.2
01/01:00am 13.2 10.2 11.9 92 0.7 W 19 24 10 13 1003.5 1003.5 2.2
01/12:30am 13.4 10.9 12.3 93 0.6 W 17 20 9 11 1003.6 1003.6 2.2
01/12:00am 13.6 12.6 12.2 91 0.8 WNW 9 11 5 6 1003.3 1003.3 1.6
 
Date/Time
CDT
Temp
°C
App
Temp
°C
Dew
Point
Rel
Hum
%
Delta-T
°C
Wind Press
QNH
hPa
Press
MSL
hPa
Rain
since 9 am
mm
Dir
 
Spd
km/h
Gust
km/h
Spd
kts
Gust
kts
31/11:30pm 13.7 12.5 11.7 88 1.1 W 9 9 5 5 1003.3 1003.3 0.2
31/11:00pm 14.4 11.3 10.4 77 2.1 SW 17 22 9 12 1003.0 1003.0 0.0
31/10:30pm 14.8 11.3 10.8 77 2.1 SW 20 26 11 14 1003.9 1003.9 0.0
31/10:00pm 15.4 11.8 12.0 80 1.9 SW 22 28 12 15 1004.1 1004.1 0.0
31/09:30pm 15.8 12.8 12.4 80 1.9 WSW 20 28 11 15 1004.2 1004.2 0.0
31/09:29pm 15.8 12.9 12.4 80 1.9 WSW 19 28 10 15 1004.2 1004.2 0.0
31/09:00pm 15.8 12.4 12.4 80 1.9 SW 22 30 12 16 1002.2 1002.2 0.0
31/08:30pm 16.5 12.1 12.8 79 2.1 SW 28 37 15 20 1001.4 1001.4 0.0
31/08:00pm 16.9 11.8 13.0 78 2.2 SW 32 43 17 23 1000.4 1000.3 0.0
31/07:30pm 19.1 14.3 12.8 67 3.6 WSW 30 37 16 20 1000.3 1000.2 0.0
31/07:00pm 21.7 16.4 9.9 47 6.4 WSW 28 37 15 20 999.6 999.5 0.0
31/06:30pm 24.6 19.8 7.3 33 9.1 WSW 22 32 12 17 998.7 998.6 0.0
31/06:00pm 25.9 19.2 5.5 27 10.5 WSW 30 39 16 21 998.6 998.5 0.0
31/05:37pm 26.4 18.6 4.8 25 11.0 WSW 35 54 19 29 998.2 998.1 0.0
31/05:30pm 27.8 19.4 5.4 24 11.7 WSW 39 54 21 29 998.1 998.0 0.0
31/05:00pm 32.3 22.7 1.4 14 15.4 W 41 52 22 28 997.6 997.5 0.0
31/04:31pm 32.0 23.2 1.2 14 15.2 W 37 56 20 30 997.7 997.6 0.0
31/04:30pm 31.9 22.7 1.1 14 15.3 W 39 56 21 30 997.7 997.6 0.0
31/04:00pm 32.4 22.2 -0.6 12 15.9 W 43 57 23 31 998.1 998.0 0.0
31/03:31pm 33.4 25.5 1.3 13 16.1 WNW 32 50 17 27 998.6 998.5 0.0
31/03:30pm 33.2 25.1 1.1 13 16.1 WNW 33 50 18 27 998.6 998.5 0.0
31/03:00pm 33.9 26.6 2.7 14 16.1 WNW 30 39 16 21 999.3 999.2 0.0
31/02:36pm 33.4 25.0 1.3 13 16.1 NNW 35 54 19 29 999.7 999.6 0.0
31/02:34pm 33.9 25.5 1.6 13 16.3 NNW 35 41 19 22 999.7 999.6 0.0
31/02:30pm 33.8 25.0 1.6 13 16.3 NW 37 59 20 32 999.9 999.8 0.0
31/02:21pm 33.7 25.7 1.5 13 16.2 NW 33 52 18 28 1000.1 1000.0 0.0
31/02:00pm 32.7 24.7 0.7 13 15.8 NNW 32 43 17 23 1000.6 1000.5 0.0
31/01:49pm 32.2 24.7 1.3 14 15.3 NNW 30 48 16 26 1000.8 1000.7 0.0
31/01:30pm 30.8 24.2 2.1 16 14.4 NNW 26 39 14 21 1001.2 1001.2 0.0
31/01:07pm 30.4 23.5 2.6 17 13.9 NNW 28 46 15 25 1001.7 1001.7 0.0
31/01:00pm 29.9 23.3 2.2 17 13.8 NNW 26 39 14 21 1001.8 1001.8 0.0
31/12:30pm 29.2 21.8 1.7 17 13.5 N 30 41 16 22 1002.4 1002.4 0.0
31/12:00pm 28.7 21.3 2.1 18 13.1 NNE 30 44 16 24 1003.1 1003.1 0.0
31/11:30am 28.0 20.4 3.0 20 12.5 N 32 44 17 24 1003.8 1003.8 0.0
31/11:00am 28.0 20.8 5.0 23 11.9 NNE 32 43 17 23 1004.4 1004.4 0.0
31/10:31am 26.3 19.3 4.1 24 11.2 NNE 30 48 16 26 1005.1 1005.1 0.0
31/10:30am 26.5 19.5 4.3 24 11.2 NNE 30 46 16 25 1005.1 1005.1 0.0
31/10:21am 26.0 19.7 5.6 27 10.5 NNE 28 46 15 25 1005.2 1005.2 0.0
31/10:00am 25.0 19.3 6.7 31 9.5 NNE 26 37 14 20 1005.5 1005.5 0.0
31/09:30am 22.5 17.8 7.9 39 7.7 N 22 33 12 18 1006.0 1006.0 0.0
31/09:00am 19.8 16.0 9.1 50 5.7 NNE 19 24 10 13 1006.6 1006.6 0.0
31/08:30am 18.4 15.0 9.2 55 4.8 N 17 24 9 13 1006.7 1006.7 0.0
31/08:00am 16.4 14.2 9.3 63 3.7 N 11 15 6 8 1007.2 1007.2 0.0
31/07:30am 15.1 11.1 9.2 68 3.0 NNE 20 32 11 17 1007.2 1007.2 0.0
31/07:00am 14.1 9.4 9.3 73 2.5 NE 24 33 13 18 1007.1 1007.1 0.0
31/06:30am 13.1 9.4 9.4 78 1.9 NE 19 24 10 13 1007.1 1007.1 0.0
31/06:00am 12.8 8.9 9.4 80 1.7 NE 20 24 11 13 1007.5 1007.5 0.0
31/05:30am 12.6 8.7 9.4 81 1.6 NE 20 28 11 15 1007.6 1007.6 0.0
31/05:00am 12.3 8.6 9.5 83 1.4 NE 19 24 10 13 1007.9 1007.9 0.0
31/04:30am 12.3 8.6 9.5 83 1.4 NE 19 22 10 12 1008.0 1008.0 0.0
31/04:00am 11.9 8.6 9.5 85 1.2 NE 17 22 9 12 1008.5 1008.5 0.0
31/03:30am 11.8 8.5 9.4 85 1.2 NE 17 22 9 12 1009.1 1009.1 0.0
31/03:00am 11.5 8.5 9.2 86 1.2 NE 15 20 8 11 1009.5 1009.5 0.0
31/02:30am 11.6 9.0 9.3 86 1.2 NE 13 17 7 9 1010.0 1010.0 0.0
31/02:00am 11.6 10.1 9.3 86 1.2 ENE 7 13 4 7 1010.6 1010.6 0.0
31/01:30am 9.6 8.5 8.4 92 0.6 ENE 4 9 2 5 1011.2 1011.2 0.0
31/01:00am 8.4 6.6 7.0 91 0.7 SE 6 7 3 4 1011.8 1011.8 0.0
31/12:30am 8.8 8.2 7.4 91 0.7 CALM 0 6 0 3 1012.3 1012.3 0.0
31/12:00am 8.4 7.2 6.5 88 0.9 SE 2 6 1 3 1012.6 1012.6 0.0
 
Date/Time
CDT
Temp
°C
App
Temp
°C
Dew
Point
Rel
Hum
%
Delta-T
°C
Wind Press
QNH
hPa
Press
MSL
hPa
Rain
since 9 am
mm
Dir
 
Spd
km/h
Gust
km/h
Spd
kts
Gust
kts
30/11:30pm 8.9 6.4 6.7 86 1.0 SSE 9 11 5 6 1012.8 1012.8 0.0
30/11:00pm 10.5 7.9 7.9 84 1.3 SE 11 15 6 8 1013.0 1013.0 0.0
30/10:30pm 11.2 8.4 8.4 83 1.4 SE 13 15 7 8 1013.4 1013.4 0.0
30/10:00pm 11.8 9.0 8.6 81 1.6 SSE 13 17 7 9 1013.8 1013.8 0.0
30/09:30pm 11.1 7.9 8.3 83 1.4 SSE 15 17 8 9 1013.9 1013.9 0.0
30/09:00pm 12.2 10.1 8.1 76 2.0 SSW 9 13 5 7 1013.9 1013.9 0.0
30/08:30pm 12.8 10.6 7.9 72 2.4 SW 9 13 5 7 1013.3 1013.3 0.0
30/08:00pm 14.4 11.6 8.4 67 3.0 W 13 15 7 8 1013.2 1013.2 0.0
30/07:30pm 17.2 14.5 8.9 58 4.3 W 13 17 7 9 1012.9 1012.9 0.0
30/07:00pm 20.1 16.9 8.4 47 6.1 W 15 17 8 9 1012.4 1012.4 0.0
30/06:30pm 21.2 17.5 8.1 43 6.8 W 17 20 9 11 1012.5 1012.5 0.0
30/06:00pm 21.9 18.3 8.4 42 7.1 W 17 26 9 14 1012.4 1012.4 0.0
30/05:30pm 22.7 18.5 7.3 37 8.0 WNW 19 20 10 11 1012.3 1012.3 0.0
30/05:00pm 23.3 19.1 7.4 36 8.3 WSW 19 24 10 13 1012.4 1012.4 0.0
30/04:30pm 23.4 21.0 7.1 35 8.5 WSW 9 20 5 11 1012.6 1012.6 0.0
30/04:00pm 23.5 20.5 7.6 36 8.3 WNW 13 22 7 12 1012.9 1012.9 0.0
30/03:30pm 22.8 19.8 7.8 38 7.9 W 13 22 7 12 1013.3 1013.3 0.0
30/03:00pm 22.3 18.5 7.7 39 7.6 WNW 17 30 9 16 1013.7 1013.7 0.0
30/02:30pm 21.7 18.1 8.2 42 7.1 WNW 17 28 9 15 1014.1 1014.1 0.0
30/02:00pm 21.1 17.5 8.4 44 6.7 WNW 17 24 9 13 1014.3 1014.3 0.0
30/01:30pm 20.5 17.8 8.8 47 6.2 NW 13 26 7 14 1014.7 1014.7 0.0
30/01:00pm 20.6 17.1 8.6 46 6.3 NW 17 24 9 13 1014.9 1014.9 0.0
30/12:30pm 19.8 17.3 8.2 47 6.0 W 11 22 6 12 1015.3 1015.3 0.0
30/12:00pm 19.3 16.4 8.3 49 5.7 SW 13 22 7 12 1015.7 1015.7 0.0
30/11:30am 18.6 15.3 8.0 50 5.4 W 15 22 8 12 1015.9 1015.9 0.0
30/11:00am 17.3 14.7 7.9 54 4.8 WNW 11 20 6 11 1016.4 1016.4 0.0
30/10:30am 16.2 13.6 7.7 57 4.3 WNW 11 17 6 9 1016.7 1016.7 0.0
30/10:00am 16.0 13.1 8.0 59 4.0 WSW 13 19 7 10 1016.7 1016.7 0.0
30/09:30am 15.3 12.8 8.3 63 3.5 NW 11 24 6 13 1016.7 1016.7 0.0
30/09:00am 14.9 13.1 9.3 69 2.9 WNW 9 15 5 8 1016.7 1016.7 0.0
30/08:30am 13.6 11.9 9.8 78 2.0 WNW 9 11 5 6 1016.7 1016.7 0.0
30/08:00am 13.1 11.5 10.1 82 1.6 NNW 9 11 5 6 1016.4 1016.4 0.0
30/07:30am 12.0 10.9 10.1 88 1.0 N 6 7 3 4 1016.3 1016.3 0.0
30/07:00am 11.2 11.0 10.3 94 0.5 N 2 6 1 3 1016.4 1016.4 0.0
30/06:30am 11.0 10.0 10.4 96 0.3 N 6 7 3 4 1016.1 1016.1 0.0
30/06:00am 10.6 9.3 10.1 97 0.3 NE 7 7 4 4 1015.6 1015.6 0.0
30/05:30am 9.7 8.2 9.2 97 0.2 NE 7 9 4 5 1015.4 1015.4 0.0
30/05:00am 10.3 9.5 9.8 97 0.3 N 4 9 2 5 1015.2 1015.2 0.0
30/04:30am 10.2 8.8 9.7 97 0.3 NNE 7 9 4 5 1015.1 1015.1 0.0
30/04:00am 9.8 9.7 9.5 98 0.1 CALM 0 0 0 0 1015.7 1015.7 0.0
30/03:30am 9.4 8.5 9.1 98 0.1 N 4 7 2 4 1015.9 1015.9 0.0
30/03:00am 9.1 8.8 8.8 98 0.1 CALM 0 0 0 0 1015.9 1015.9 0.0
30/02:30am 7.7 5.8 7.4 98 0.1 NW 7 9 4 5 1015.7 1015.7 0.0
30/02:00am 8.0 5.8 7.7 98 0.1 N 9 13 5 7 1015.7 1015.7 0.0
30/01:30am 8.2 6.0 7.9 98 0.1 NNW 9 13 5 7 1016.1 1016.1 0.0
30/01:00am 8.3 6.1 7.9 97 0.2 N 9 11 5 6 1016.3 1016.3 0.0
30/12:30am 8.3 7.8 7.9 97 0.2 CALM 0 0 0 0 1016.6 1016.6 0.0
30/12:00am 7.9 7.3 7.3 96 0.3 CALM 0 0 0 0 1017.0 1016.9 0.0
 
Date/Time
CDT
Temp
°C
App
Temp
°C
Dew
Point
Rel
Hum
%
Delta-T
°C
Wind Press
QNH
hPa
Press
MSL
hPa
Rain
since 9 am
mm
Dir
 
Spd
km/h
Gust
km/h
Spd
kts
Gust
kts
29/11:30pm 7.8 7.1 6.9 94 0.4 CALM 0 0 0 0 1017.3 1017.2 0.0
29/11:00pm 8.2 7.6 7.3 94 0.4 CALM 0 0 0 0 1017.3 1017.2 0.0
29/10:30pm 8.9 8.5 8.1 95 0.4 CALM 0 0 0 0 1017.6 1017.5 0.0
29/10:00pm 9.7 9.4 8.8 94 0.4 CALM 0 0 0 0 1017.6 1017.5 0.0
29/09:30pm 9.7 8.1 8.6 93 0.5 SW 7 9 4 5 1017.5 1017.4 0.0
29/09:00pm 9.8 7.3 8.4 91 0.7 SW 11 13 6 7 1017.6 1017.5 0.0
29/08:30pm 11.3 9.5 9.4 88 1.0 SW 9 9 5 5 1017.4 1017.3 0.0
29/08:00pm 12.4 9.7 10.3 87 1.1 SSW 15 19 8 10 1017.2 1017.1 0.0
29/07:30pm 13.8 10.2 10.6 81 1.7 SW 20 28 11 15 1017.2 1017.1 0.0
29/07:00pm 16.2 12.0 9.8 66 3.4 SW 22 30 12 16 1017.1 1017.0 0.0
29/06:30pm 17.6 13.1 10.0 61 4.0 SW 24 30 13 16 1016.7 1016.7 0.0
29/06:00pm 18.5 13.7 10.3 59 4.4 SW 26 33 14 18 1016.4 1016.4 0.0
29/05:30pm 19.6 14.4 8.9 50 5.6 W 26 35 14 19 1016.5 1016.5 0.0
29/05:00pm 19.5 14.1 9.4 52 5.4 W 28 39 15 21 1016.5 1016.5 0.0
29/04:37pm 19.9 14.2 9.8 52 5.4 WSW 30 48 16 26 1016.3 1016.3 0.0
29/04:30pm 20.0 14.5 9.0 49 5.8 WSW 28 35 15 19 1016.4 1016.4 0.0
29/04:00pm 20.6 15.0 8.9 47 6.2 W 28 41 15 22 1016.4 1016.4 0.0
29/03:30pm 20.0 14.3 8.4 47 6.0 W 28 44 15 24 1016.5 1016.5 0.0
29/03:00pm 20.0 15.3 9.3 50 5.7 WSW 24 28 13 15 1016.7 1016.7 0.0
29/02:30pm 20.0 14.5 9.0 49 5.8 WNW 28 39 15 21 1017.1 1017.0 0.0
29/02:00pm 20.1 14.7 8.1 46 6.2 W 26 41 14 22 1017.3 1017.2 0.0
29/01:33pm 20.0 14.3 8.4 47 6.1 WNW 28 46 15 25 1017.4 1017.3 0.0
29/01:30pm 20.3 15.4 8.3 46 6.2 WNW 24 37 13 20 1017.4 1017.3 0.0
29/01:00pm 20.2 15.7 8.5 47 6.1 W 22 30 12 16 1017.6 1017.5 0.0
29/12:30pm 19.3 15.6 9.5 53 5.2 WNW 19 28 10 15 1018.1 1018.1 0.0
29/12:00pm 18.5 14.7 9.8 57 4.6 NW 20 28 11 15 1018.4 1018.4 0.0
29/11:30am 17.3 12.9 10.4 64 3.7 NW 24 35 13 19 1019.0 1019.0 0.0
29/11:00am 16.8 13.8 9.2 61 3.9 NW 15 22 8 12 1019.3 1019.3 0.0
29/10:30am 15.6 12.3 9.5 67 3.2 NW 17 24 9 13 1019.6 1019.6 0.0
29/10:00am 15.4 12.4 9.3 67 3.1 WNW 15 22 8 12 1019.6 1019.6 0.0
29/09:30am 15.2 12.9 8.9 66 3.2 W 11 17 6 9 1019.6 1019.6 0.0
29/09:00am 14.7 12.8 9.1 69 2.9 NW 9 13 5 7 1019.6 1019.6 0.0
29/08:30am 13.9 12.2 9.7 76 2.2 WNW 9 13 5 7 1019.5 1019.5 0.0
29/08:00am 13.1 11.2 9.0 76 2.1 NW 9 13 5 7 1019.4 1019.4 0.0
29/07:30am 12.1 10.4 9.8 86 1.2 N 9 11 5 6 1019.3 1019.3 0.0
29/07:00am 11.0 9.6 9.6 91 0.7 N 7 9 4 5 1019.4 1019.4 0.0
29/06:30am 10.2 8.3 9.1 93 0.5 N 9 11 5 6 1019.3 1019.3 0.0
29/06:00am 9.8 7.9 9.2 96 0.3 N 9 13 5 7 1019.2 1019.2 0.0

Other Formats:

Comma delimited format used in spreadsheet applications
http://www.bom.gov.au/fwo/IDS60801/IDS60801.94820.axf

JavaScript Object Notation format (JSON) in row-major order
http://www.bom.gov.au/fwo/IDS60801/IDS60801.94820.json